Location: Unspecified
(0.0000°N, 0.0000°E)
Time: 13:13:14
(UTC+00:00)

Kosmos-1333 - Pass Details

Date: 25 May 2026
Orbit: 964 x 1010 km, 82.9° (Epoch: 5 June)

Event Time Altitude Azimuth Distance (km) Brightness Sun altitude
Exits shadow 19:47:14 24° 181° (S) 1,902 8.3 -25.6°
Maximum altitude 19:51:13 86° 92° (E) 1,000 6.9 -26.5°
Drops below altitude 10° 19:57:35 10° 4° (N) 2,763 9.6 -27.9°
Sets 20:00:06 0° 4° (N) 3,715 10.3 -28.5°
